Terminal Aerodrome Forecast
Issued by NWS Caribou, ME

Home | Current Version | Previous Version | Text Only | Print | Product List | Glossary On
Versions: 1 2 3 4 5 6 7 8 9 10 11 12 13 14 15 16
832
FTUS41 KCAR 190520
TAFBGR
TAF
KBGR 190520Z 1906/2006 01003KT P6SM OVC060
     FM190730 VRB02KT 2SM -SN OVC020
     FM191100 VRB02KT 5SM -SHSN OVC015
     FM191600 VRB03KT P6SM BKN025
     FM191900 26004KT P6SM BKN035=

USA.gov is the U.S. government's official web portal to all federal, state and local government web resources and services.